Weather History for Williamsport, PA

Change the Weather History Date:

Thursday, November 7, 2013

  Actual Average Record
Temperature  
Mean Temperature 50 °F 45 °F  
Max Temperature 60 °F 54 °F 77 °F (1938)
Min Temperature 40 °F 35 °F 20 °F (1931)
Degree Days  
Heating Degree Days 15 20  
Month to date heating degree days 134 136  
Since 1 July heating degree days 580 679  
Cooling Degree Days 0 0  
Month to date cooling degree days 0 0  
Year to date cooling degree days 863 702  
Moisture  
Dew Point 43 °F    
Average Humidity 74    
Maximum Humidity 93    
Minimum Humidity 55    
Precipitation  
Precipitation 0.41 in 0.11 in 1.92 in (1941)
Month to date precipitation 0.67 0.81  
Year to date precipitation 26.88 35.42  
Snow  
Snow 0.00 in - - ()
Month to date snowfall 0.0  
Since 1 July snowfall 0.0  
Since 1 September snowfall 0.0  
Snow Depth 0.00 in    
Sea Level Pressure  
Sea Level Pressure 29.91 in    
Wind  
Wind Speed 8 mph (WNW)    
Max Wind Speed 22 mph    
Max Gust Speed 28 mph    
Visibility 8 miles    
Events Rain    
T = Trace of Precipitation, MM = Missing Value Source: NWS Daily Summary

Daily Weather History Graph

Daily Weather History Graph

Search for Another Location

Airport:

Trip Planner

Search our weather history database for the weather conditions in past years. The results will help you decide how hot, cold, wet, or windy it might be!

Date:

Astronomy

Nov. 07, 2013 Rise Set
Actual Time 6:46 AM EST 4:55 PM EST
Civil Twilight 6:17 AM EST 5:24 PM EST
Nautical Twilight 5:44 AM EST 5:57 PM EST
Astronomical Twilight 5:12 AM EST 6:30 PM EST
Moon 10:53 AM EST (11/7) 9:04 PM EST (11/7)
Length of Visible Light 11h 07m
Length of Day
10h 09m
Waxing Crescent, 22% of the Moon is Illuminated
Nov 7
Waxing Crescent
Nov 10
First Quarter
Nov 17
Full
Nov 25
Last Quarter
Dec 2
New

Hourly Weather History & Observations

Time (EST) Temp. Windchill Dew Point Humidity Pressure Visibility Wind Dir Wind Speed Gust Speed Precip Events Conditions
12:54 AM 60.1 °F - 48.0 °F 64% 29.92 in 10.0 mi Variable 3.5 mph 23.0 mph 0.00 in   Overcast
1:54 AM 59.0 °F - 48.9 °F 69% 29.90 in 10.0 mi East 10.4 mph - N/A   Overcast
2:54 AM 59.0 °F - 48.0 °F 67% 29.87 in 10.0 mi Variable 5.8 mph - 0.00 in   Overcast
3:54 AM 57.9 °F - 48.9 °F 72% 29.85 in 10.0 mi Calm Calm - 0.00 in   Overcast
4:54 AM 55.0 °F - 51.1 °F 86% 29.84 in 6.0 mi East 3.5 mph - 0.05 in Rain Rain
5:54 AM 54.0 °F - 52.0 °F 93% 29.83 in 5.0 mi WNW 3.5 mph - 0.11 in Rain Rain
6:06 AM 53.6 °F - 51.8 °F 94% 29.85 in 2.5 mi Calm Calm - 0.04 in Rain Heavy Rain
6:22 AM 53.6 °F - 51.8 °F 94% 29.85 in 4.0 mi Calm Calm - 0.10 in Rain Rain
6:49 AM 53.6 °F - 51.8 °F 94% 29.85 in 5.0 mi Calm Calm - 0.13 in Rain Rain
6:54 AM 54.0 °F - 52.0 °F 93% 29.86 in 5.0 mi Calm Calm - 0.14 in Rain Light Rain
7:03 AM 53.6 °F - 51.8 °F 94% 29.85 in 5.0 mi Calm Calm - 0.00 in Rain Light Rain
7:16 AM 53.6 °F - 51.8 °F 94% 29.86 in 3.0 mi Calm Calm - 0.02 in Rain Rain
7:22 AM 53.6 °F - 51.8 °F 94% 29.86 in 2.5 mi Calm Calm - 0.03 in Rain Light Rain
7:54 AM 53.1 °F - 52.0 °F 96% 29.87 in 3.0 mi South 4.6 mph - 0.08 in Rain Light Rain
8:02 AM 53.6 °F - 51.8 °F 94% 29.87 in 3.0 mi SSW 3.5 mph - 0.01 in Rain Light Rain
8:54 AM 54.0 °F - 51.1 °F 90% 29.87 in 10.0 mi West 9.2 mph - 0.02 in   Overcast
9:54 AM 53.1 °F - 48.9 °F 86% 29.88 in 10.0 mi West 6.9 mph - 0.01 in Rain Light Rain
10:54 AM 52.0 °F - 46.0 °F 80% 29.89 in 10.0 mi WNW 5.8 mph - 0.00 in   Overcast
11:06 AM 51.8 °F - 44.6 °F 76% 29.90 in 10.0 mi NNW 6.9 mph - N/A   Overcast
11:32 AM 50.0 °F - 42.8 °F 76% 29.90 in 10.0 mi NW 5.8 mph - N/A   Overcast
11:54 AM 48.9 °F - 41.0 °F 74% 29.91 in 10.0 mi North 11.5 mph 16.1 mph N/A   Overcast
12:26 PM 48.2 °F - 39.2 °F 71% 29.92 in 10.0 mi NW 10.4 mph 18.4 mph N/A   Overcast
12:54 PM 48.9 °F - 37.9 °F 66% 29.92 in 10.0 mi NW 4.6 mph - N/A   Overcast
1:54 PM 50.0 °F - 37.0 °F 61% 29.91 in 10.0 mi NW 10.4 mph 21.9 mph 0.00 in Rain Light Rain
2:54 PM 48.0 °F - 35.1 °F 61% 29.92 in 10.0 mi NW 15.0 mph 18.4 mph 0.00 in   Overcast
3:54 PM 48.0 °F - 33.1 °F 56% 29.93 in 10.0 mi NNW 8.1 mph - N/A   Mostly Cloudy
4:54 PM 45.0 °F 39.3 °F 36.0 °F 71% 29.95 in 10.0 mi West 11.5 mph 24.2 mph 0.00 in Rain Light Rain
5:54 PM 44.1 °F 42.5 °F 33.1 °F 65% 29.97 in 10.0 mi West 3.5 mph - 0.00 in   Mostly Cloudy
6:54 PM 43.0 °F 41.3 °F 33.1 °F 68% 29.98 in 10.0 mi WNW 3.5 mph - N/A   Overcast
7:54 PM 43.0 °F 34.8 °F 34.0 °F 71% 30.00 in 10.0 mi West 18.4 mph 26.5 mph 0.00 in Rain Light Rain
8:54 PM 43.0 °F 36.8 °F 32.0 °F 65% 30.02 in 10.0 mi NW 11.5 mph - 0.00 in   Overcast
9:54 PM 41.0 °F 35.8 °F 26.1 °F 55% 30.01 in 10.0 mi West 8.1 mph - N/A   Mostly Cloudy
10:54 PM 41.0 °F 34.3 °F 27.0 °F 57% 30.00 in 10.0 mi West 11.5 mph 25.3 mph N/A   Partly Cloudy
11:54 PM 39.9 °F 33.4 °F 26.1 °F 58% 30.01 in 10.0 mi West 10.4 mph - N/A   Overcast